Regional Weather Roundup
Issued by NWS Binghamton, NY

Current Version | Previous Version | Text Only | Print | Product List | Glossary On
Versions: 1 2 3 4 5 6 7 8 9 10 11 12 13 14 15 16 17 18 19 20 21 22 23 24 25 26 27 28 29 30 31 32 33 34 35 36 37 38 39 40 41 42 43 44 45 46 47 48 49 50
000
ASUS41 KBGM 172310
RWRBGM

REGIONAL WEATHER ROUNDUP
NATIONAL WEATHER SERVICE BINGHAMTON NY
600 PM EST FRI NOV 17 2017

Note: "fair" indicates few or no clouds below 12,000 feet with no
significant weather and/or obstructions to visibility.

* = Station(s) that does not report precipitation, such as rain,
snow, etc, also no thunder or fog.

NYZ009-015>018-022>025-036-037-044>046-055>057-062-180000
...Central New York...

CITY           SKY/WX    TMP DP  RH WIND       PRES   REMARKS
Binghamton     CLEAR     28  16  60 N3        30.07F
Cortland       FAIR      28  23  80 CALM      30.12R
Dansville      CLOUDY    34  23  64 S5        30.10F WCI  30
Elmira         CLEAR     30  22  72 CALM      30.12S
Seneca Falls   CLEAR     32  21  64 CALM      30.14S
Ithaca         CLEAR     26  21  81 N3        30.12F
Hamilton       CLEAR     27  21  80 CALM      30.12S
Hornell        CLOUDY    32  25  74 SE6       30.11F WCI  26
Monticello     CLEAR     32  18  56 NW12      30.06F WCI  23
Penn Yan       CLOUDY    33  23  66 CALM      30.12S
Rome           PTCLDY    27  19  72 N5        30.16S WCI  22
Sidney         CLEAR     28  19  69 CALM      30.11S
Syracuse       PTCLDY    30  21  69 CALM      30.14F
$$

PAZ038>040-043-044-047-048-072-180000
...Northeast Pennsylvania...

CITY           SKY/WX    TMP DP  RH WIND       PRES   REMARKS
Hazleton       PTCLDY    36  18  48 NW7       30.11R WCI  30
Scranton       CLOUDY    38  17  42 NW5       30.10F WCI  34
$$
&&
KEY
WCI = Wind Chill Index
VSB = Visibility
HX  = Heat Index
$$



USA.gov is the U.S. government's official web portal to all federal, state and local government web resources and services.